Location: Canazei
(46.4667°N, 11.7667°E)
Time: 03:42:51
(UTC+00:00)

SL-4 R/B - Pass Details

Date: 21 April 2021
Orbit: 427 x 663 km, 51.6° (Epoch: 10 May)

Event Time Altitude Azimuth Distance (km) Brightness Sun altitude
Exits shadow 01:05:35 70° 352° (N) 706 2.5 -26.3°
Maximum altitude 01:05:52 73° 22° (NNE) 696 2.5 -26.3°
Drops below altitude 10° 01:10:41 10° 108° (ESE) 2,072 5.1 -25.8°
Sets 01:13:01 0° 110° (ESE) 2,968 5.9 -25.6°
